Weather Roundup
Issued by NWS Springfield, MO

Home | Current Version | Previous Version | Text Only | Print | Product List | Glossary On
Versions: 1 2 3 4 5 6 7 8 9 10 11 12 13 14 15 16 17 18 19 20 21 22 23 24 25 26 27 28 29 30 31 32 33 34 35 36 37 38 39 40 41 42 43 44 45 46 47 48 49 50
000
NZUS99 KSGF 251107
HRRSGF

HOURLY WEATHER
NATIONAL WEATHER SERVICE SPRINGFIELD MO
600 AM CDT MON JUL 25 2016

......SGF CWA......

CITY           SKY/WX    TMP DP  RH WIND       PRES   REMARKS
SPRINGFIELD    MOCLDY    79  73  82 CALM      30.00R
JOPLIN         PTCLDY    78  73  84 N7        30.01R
WEST PLAINS    CLOUDY    76  73  91 NE5       30.04R FOG
ROLLA          LGT RAIN  72  69  90 E7        30.01F
OSAGE BEACH    CLOUDY    72  70  93 E5        30.03R THUNDER
BRANSON        PTCLDY    75  68  78 CALM      30.02R

......SURROUNDING SGF CWA......

CITY           SKY/WX    TMP DP  RH WIND       PRES   REMARKS
CHANUTE        MOCLDY    76  70  82 E3        29.99R
PARSONS        LGT RAIN  79  71  76 VRB3      29.99F
COFFEYVILLE    CLOUDY    79  74  84 N7        29.96F
EMPORIA        TSTM      69  67  93 N9        30.03R FOG
GROVE OK       PTCLDY    79  72  78 S3        29.99S
ROGERS AR      MOCLDY    78  70  76 S6        30.03R
SILOAM SPRINGS CLEAR     73  63  68 SW6       30.02F
HARRISON AR    CLEAR     73  71  93 SE3       30.02R
NEAR YELLVILLE CLEAR     73  70  88 CALM      29.97S

......KANSAS AND MISSOURI......

CITY           SKY/WX    TMP DP  RH WIND       PRES   REMARKS
KANSAS CTY INT CLOUDY    74  67  78 NE8       30.06R
DOWNTOWN KC    CLOUDY    76  66  71 NE9       30.04R
COLUMBIA       TSTM      73  71  93 E12       30.02F FOG
SEDALIA        TSTM      73  71  93 NE5       30.05R FOG
ST JOSEPH      CLOUDY    69  66  90 N3        30.06R
ST LOUIS       LGT RAIN  74  71  91 NE5       29.99F
SPIRIT OF STL  LGT RAIN  73  72  96 E5        29.97F
KIRKSVILLE     MOCLDY    71  66  84 N5        30.05R
WICHITA        TSTM      76  70  82 NW21      30.03R
TOPEKA         CLOUDY    74  67  78 NE6       30.05R THUNDER
OLATHE         CLOUDY    74  70  87 NE5       30.05S

......TENNESSEE......

CITY           SKY/WX    TMP DP  RH WIND       PRES   REMARKS
MEMPHIS        PTCLDY    79  75  87 S6        30.00R
NASHVILLE      MOCLDY    76  73  91 S5        30.04R

......ARKANSAS.......

CITY           SKY/WX    TMP DP  RH WIND       PRES   REMARKS
FAYETTEVILLE   PTCLDY    73  71  93 S6        30.02S
FT SMITH       PTCLDY    77  71  82 NE3       29.98S
LITTLE ROCK    MOCLDY    76  71  85 S3        29.99R

......OKLAHOMA.......

CITY           SKY/WX    TMP DP  RH WIND       PRES   REMARKS
TULSA          CLOUDY    84  74  71 S9        29.95S HX  91
PONCA CITY     CLOUDY    78  71  79 NW12G30   30.01R
MCALESTER      CLEAR     77  71  82 CALM      30.00R
OKLAHOMA CITY  CLOUDY    80  70  71 W6        30.01R

......IOWA............

CITY           SKY/WX    TMP DP  RH WIND       PRES   REMARKS
DES MOINES     PTCLDY    70  64  81 N8        30.07R
QUAD CITIES    CLOUDY    69  65  86 CALM      30.02R

......ILLINOIS........

CITY           SKY/WX    TMP DP  RH WIND       PRES   REMARKS
QUINCY         CLOUDY    75  72  90 E8        30.00S
CHICAGO        MOCLDY    73  69  87 W7        29.96R




USA.gov is the U.S. government's official web portal to all federal, state and local government web resources and services.